Location: Treviso
(45.6669°N, 12.2430°E)
Time: 01:03:01
(UTC+01:00)

AAUSAT CUBESAT 2 - Visible Passes

Search period start: 27 February 2021 00:00
Search period end: 09 March 2021 00:00
Orbit: 574 x 588 km, 97.5° (Epoch: 26 February)

Date Brightness Start Highest point End Pass type
(mag) Time Alt. Az. Time Alt. Az. Time Alt. Az.
27 Feb ? 05:18:17 10° NNE 05:22:04 32° E 05:25:48 10° SSE visible
28 Feb ? 05:23:28 10° NNE 05:27:21 37° E 05:31:12 10° SSE visible
01 Mar ? 05:28:39 10° NNE 05:32:38 42° E 05:36:34 10° S visible
02 Mar ? 05:33:52 10° NNE 05:37:55 48° E 05:41:55 10° S visible
03 Mar ? 05:39:04 10° NNE 05:43:11 55° E 05:47:15 10° S visible
04 Mar ? 05:44:18 10° NNE 05:48:27 64° E 05:52:33 10° S visible
05 Mar ? 05:49:31 10° NNE 05:53:42 73° E 05:57:50 10° S visible
06 Mar ? 05:54:46 10° NNE 05:58:58 84° ESE 06:03:05 10° SSW visible
07 Mar ? 06:00:02 10° NNE 06:04:12 86° WNW 06:08:20 10° SSW visible
08 Mar ? 04:32:46 10° ENE 04:33:33 10° E 04:34:21 10° E visible
08 Mar ? 06:05:17 10° N 06:09:27 75° WNW 06:13:34 10° SSW visible
